Find Starlink 34975

NORAD ID: 65224 Int'l Des: 2025-176 Owner: SPXS Country: US Constellation: starlink operational
LEOCIRCULAR

当前视图

正在加载3D地球...

关于 Starlink 34975

正在加载描述...

即将过境

Passes for default location (London). Set your location on the main map for personalized predictions.

高度历史

Loading altitude history...

两行轨道根数

1 65224U 25176AC 26151.20193948 .00045072 00000-0 13365-2 0 9999
2 65224 53.1592 128.7427 0001320 73.0021 287.1126 15.34413480 45768
Epoch: May 31, 2026 • Age: 5 hours

当前状态

高度 465.9 km
速度 7.64 km/s
星下点 41.32°N, 133.28°W
发射日期 Aug 14, 2025
运行时间 0.7 years
类型 internet

技术详情

分类 Payload
质量 575.00 kg
干质量 530.00 kg
总质量 575.00 kg
长度 0.30 m
直径 4.10 m
跨度 29.00 m
形状 Box + pan
制造商 SPXS
平台类型 Starlink V2MO
阶段状态 In Orbit
所有者/国家 SPXS/US

Most Searched